EW5674 Weather Reports


Display with metric or nautical units.
time (UTC)temp
F
wind
direction
speed
MPH
gust
MPH
rain 1hr
in
rain 24hr
in
rain mn
in
humidity
%
barometer
mb
20260507130101 56 212 4.0 10.0 0.00 0.00 0.00 40 1017.0
20260507124551 55 212 2.0 9.0 0.00 0.00 0.00 41 1017.0
20260507123040 55 156 3.0 9.0 0.00 0.00 0.00 41 1016.9
20260507121535 55 183 3.0 8.0 0.00 0.00 0.00 40 1016.9
20260507120033 54 212 4.0 10.0 0.00 0.00 0.00 41 1016.9
20260507114526 54 212 4.0 10.0 0.00 0.00 0.00 42 1016.9
20260507113026 53 212 2.0 8.0 0.00 0.00 0.00 43 1016.9
20260507111520 54 212 2.0 9.0 0.00 0.00 0.00 43 1016.9
20260507110012 54 127 1.0 11.0 0.00 0.00 0.00 44 1016.9
20260507104508 54 202 2.0 8.0 0.00 0.00 0.00 41 1016.8
20260507103004 53 212 2.0 5.0 0.00 0.00 0.00 40 1016.9
20260507101600 52 212 0.0 5.0 0.00 0.00 0.00 39 1016.9
20260507100107 51 217 0.0 7.0 0.00 0.00 0.00 42 1017.0
20260507094551 51 148 1.0 5.0 0.00 0.00 0.00 40 1017.0
20260507093047 51 207 1.0 5.0 0.00 0.00 0.00 41 1017.0
20260507091545 50 185 1.0 8.0 0.00 0.00 0.00 40 1016.9
20260507090038 49 212 3.0 8.0 0.00 0.00 0.00 40 1016.9
20260507084542 49 212 2.0 6.0 0.00 0.00 0.00 40 1016.9
20260507083029 48 221 3.0 8.0 0.00 0.00 0.00 39 1016.9
20260507081525 47 238 3.0 9.0 0.00 0.00 0.00 38 1016.9
20260507080020 47 231 3.0 8.0 0.00 0.00 0.00 36 1016.7
20260507074515 46 246 4.0 10.0 0.00 0.00 0.00 32 1016.7
20260507073012 45 259 4.0 8.0 0.00 0.00 0.00 20 1016.7
20260507071507 43 239 2.0 6.0 0.00 0.00 0.00 5 1016.8
20260507070004 42 238 1.0 6.0 0.00 0.00 0.00 1 1016.8
20260507064600 40 241 1.0 3.0 0.00 0.00 0.00 1 1016.8
20260507063054 39 217 0.0 3.0 0.00 0.00 0.00 1 1016.7
20260507061550 37 217 1.0 3.0 0.00 0.00 0.00 1 1016.6
20260507060045 37 217 0.0 1.0 0.00 0.00 0.00 1 1016.6
20260507054602 36 217 0.0 0.0 0.00 0.00 0.00 1 1016.7
20260507053037 35 217 0.0 0.0 0.00 0.00 0.00 1 1016.7
20260507051533 35 217 0.0 0.0 0.00 0.00 0.00 1 1016.6
20260507050039 34 217 0.0 0.0 0.00 0.00 0.00 1 1016.5
20260507044524 33 217 0.0 0.0 0.00 0.00 0.00 1 1016.4
20260507043019 33 217 0.0 1.0 0.00 0.00 0.00 1 1016.3
20260507041515 32 217 0.0 1.0 0.00 0.00 0.00 1 1016.3
20260507040011 32 217 0.0 0.0 0.00 0.00 0.00 1 1016.3
20260507034507 33 217 0.0 0.0 0.00 0.00 0.00 1 1016.2
20260507033002 33 217 0.0 1.0 0.00 0.00 0.00 1 1016.2
20260507031600 33 217 0.0 2.0 0.00 0.00 0.00 1 1016.1
20260507030053 33 217 0.0 0.0 0.00 0.00 0.00 1 1016.1
20260507024553 34 217 0.0 2.0 0.00 0.00 0.00 1 1016.0
20260507023044 34 217 0.0 1.0 0.00 0.00 0.00 1 1015.8
20260507021540 35 217 0.0 1.0 0.00 0.00 0.00 1 1015.8
20260507020045 35 217 0.0 1.0 0.00 0.00 0.00 1 1015.8
20260507014534 35 217 0.0 2.0 0.00 0.00 0.00 1 1015.9
20260507013026 36 217 0.0 1.0 0.00 0.00 0.00 1 1015.8
20260507011524 37 217 0.0 2.0 0.00 0.00 0.00 1 1015.7
20260507010028 37 217 0.0 4.0 0.00 0.00 0.00 1 1015.6
20260507004515 38 212 2.0 6.0 0.00 0.00 0.00 1 1015.7
20260507003009 38 212 1.0 5.0 0.00 0.00 0.00 1 1015.6
20260507001506 38 212 0.0 4.0 0.00 0.00 0.00 1 1015.6
20260507000127 37 212 1.0 4.0 0.00 0.00 0.00 2 1015.6
20260506234618 37 212 0.0 1.0 0.00 0.00 0.00 11 1015.6
20260506233052 38 212 0.0 4.0 0.00 0.00 0.00 11 1015.6
20260506231548 38 212 1.0 4.0 0.00 0.00 0.00 11 1015.5
20260506230047 38 212 1.0 4.0 0.00 0.00 0.00 13 1015.5
20260506224539 38 212 0.0 4.0 0.00 0.00 0.00 16 1015.4
20260506223034 38 202 1.0 4.0 0.00 0.00 0.00 18 1015.4
20260506221538 38 212 1.0 4.0 0.00 0.00 0.00 23 1015.3
20260506220031 39 201 1.0 3.0 0.00 0.00 0.00 27 1015.3
20260506214524 39 212 1.0 4.0 0.00 0.00 0.00 30 1015.2
20260506213020 39 194 2.0 5.0 0.00 0.00 0.00 34 1015.2
20260506211526 40 203 1.0 5.0 0.00 0.00 0.00 37 1015.2
20260506210019 40 212 2.0 5.0 0.00 0.00 0.00 42 1015.2
20260506204514 40 179 1.0 5.0 0.00 0.00 0.00 46 1015.2
20260506203002 41 207 2.0 6.0 0.00 0.00 0.00 48 1015.2
20260506201559 41 212 2.0 7.0 0.00 0.00 0.00 49 1015.1
20260506200054 41 212 2.0 7.0 0.00 0.00 0.00 49 1015.2
20260506194550 42 212 1.0 9.0 0.00 0.00 0.00 48 1015.2
20260506193051 43 179 2.0 6.0 0.00 0.00 0.00 49 1015.0
20260506191541 43 221 3.0 10.0 0.00 0.00 0.00 50 1014.9
20260506190035 44 212 5.0 10.0 0.00 0.00 0.00 49 1014.9
20260506184537 45 212 4.0 12.0 0.00 0.00 0.00 48 1014.8
20260506183027 45 212 3.0 10.0 0.00 0.00 0.00 47 1014.8
20260506181535 46 187 3.0 14.0 0.00 0.00 0.00 46 1014.7
20260506180019 47 197 2.0 13.0 0.00 0.00 0.00 47 1014.7
20260506174514 47 212 5.0 14.0 0.00 0.00 0.00 46 1014.6
20260506173010 48 212 4.0 13.0 0.00 0.00 0.00 46 1014.5
20260506171513 48 203 5.0 12.0 0.00 0.00 0.00 45 1014.4
20260506170001 47 203 3.0 12.0 0.00 0.00 0.00 46 1014.5
20260506164557 48 212 5.0 14.0 0.00 0.00 0.00 44 1014.4
20260506163057 48 212 3.0 13.0 0.00 0.00 0.00 45 1014.4
20260506161549 49 207 4.0 12.0 0.00 0.00 0.00 46 1014.3
20260506160045 50 223 3.0 13.0 0.00 0.00 0.00 45 1014.3
20260506154555 51 212 2.0 13.0 0.00 0.00 0.00 43 1014.4
20260506153035 51 203 5.0 13.0 0.00 0.00 0.00 40 1014.4
20260506151532 51 188 4.0 12.0 0.00 0.00 0.00 40 1014.5
20260506150026 51 225 3.0 11.0 0.00 0.00 0.00 41 1014.5
20260506144522 53 118 4.0 13.0 0.00 0.00 0.00 40 1014.7
20260506143024 52 207 7.0 16.0 0.00 0.00 0.00 40 1014.7
20260506141514 53 177 4.0 15.0 0.00 0.00 0.00 39 1014.7
20260506140016 53 195 4.0 13.0 0.00 0.00 0.00 38 1014.6
20260506134504 52 212 5.0 14.0 0.00 0.00 0.00 39 1014.6
20260506133000 52 242 4.0 12.0 0.00 0.00 0.00 38 1014.8
20260506131557 50 212 3.0 15.0 0.00 0.00 0.00 39 1014.9